This is the latest recevied weather packets stored in our database for station/object iz1wiy-3. If no packets are shown the sender has not sent any weather packets the latest 1 day(s).
| Time | Temp. | Humidity | Pressure | Rain* | Wind** | Luminosity | Snow |
|---|---|---|---|---|---|---|---|
| 1778040663 | 16.67° C | 89% | 1009.1 hPa | 3.81 mm | - | - | - |
| 1778040363 | 16.67° C | 89% | 1009.2 hPa | 3.81 mm | - | - | - |
| 1778040244 | 16.67° C | 89% | 1009.2 hPa | 3.56 mm | - | - | - |
| 1778040184 | 16.67° C | 89% | 1009.2 hPa | 3.56 mm | - | - | - |
| 1778039883 | 16.67° C | 88% | 1009.3 hPa | 3.56 mm | - | - | - |
| 1778039583 | 16.67° C | 89% | 1009.5 hPa | 2.79 mm | - | - | - |
| 1778039523 | 16.67° C | 90% | 1009.4 hPa | 2.79 mm | - | - | - |
| 1778039464 | 16.67° C | 90% | 1009.4 hPa | 2.79 mm | - | - | - |
| 1778039343 | 16.67° C | 89% | 1009.3 hPa | 2.79 mm | - | - | - |
| 1778038683 | 16.67° C | 88% | 1009.3 hPa | 0.25 mm | - | - | - |
| 1778038564 | 16.67° C | 87% | 1009.5 hPa | 0.25 mm | - | - | - |
| 1778038023 | 17.22° C | 87% | 1009.4 hPa | 0.25 mm | - | - | - |
| 1778037963 | 17.22° C | 87% | 1009.5 hPa | 0.25 mm | - | - | - |
| 1778037483 | 17.22° C | 88% | 1009.6 hPa | 0.25 mm | - | - | - |
| 1778037183 | 17.22° C | 89% | 1009.8 hPa | 0 mm | - | - | - |
| 1778037123 | 17.22° C | 89% | 1009.8 hPa | 0.25 mm | - | - | - |
| 1778037004 | 17.22° C | 88% | 1009.8 hPa | 0.25 mm | - | - | - |
| 1778036643 | 17.22° C | 88% | 1009.8 hPa | 0.25 mm | - | - | - |
| 1778036404 | 17.22° C | 88% | 1009.8 hPa | 0.25 mm | - | - | - |
| 1778036343 | 17.22° C | 88% | 1009.8 hPa | 0.25 mm | - | - | - |
| 1778035563 | 16.67° C | 88% | 1009.6 hPa | 1.78 mm | - | - | - |
| 1778035443 | 16.67° C | 88% | 1009.6 hPa | 1.78 mm | - | - | - |
| 1778035383 | 16.11° C | 88% | 1009.4 hPa | 1.78 mm | - | - | - |
| 1778035263 | 16.11° C | 88% | 1009.5 hPa | 1.78 mm | - | - | - |
| 1778035143 | 16.11° C | 88% | 1009.5 hPa | 2.03 mm | - | - | - |
* Rain latest hour (hover to see other rain measurements)
** Current wind speed in m/s (hover to see current wind gust speed)